﻿_id,日時,平均風速(m/s),平均風向,最大瞬間風速(m/s),最大風速時風向,気温(℃),湿度(%),10分間移動積算雨量(mm),1時間移動積算雨量(mm),日雨量(mm),累計雨量(mm)
1,2019-09-02T00:00:00,0.2,静穏,0.9,東,21.4,97.8,0,0,1,1
2,2019-09-02T00:01:00,,"",,"",,,,,,
3,2019-09-02T00:02:00,0.3,南東,0.9,東,21.3,97.7,0,0,0,1
4,2019-09-02T00:03:00,0.4,南東,1,東,21.4,97.7,0,0,0,1
5,2019-09-02T00:04:00,0.5,東南東,1,東,21.4,97.7,0,0,0,1
6,2019-09-02T00:05:00,0.5,東南東,1,東,21.3,97.7,0,0,0,1
7,2019-09-02T00:06:00,0.6,東南東,1.1,東,21.2,97.6,0,0,0,1
8,2019-09-02T00:07:00,0.7,東,1.1,東,21.2,97.6,0,0,0,1
9,2019-09-02T00:08:00,0.7,東,1.1,東,21.3,97.6,0,0,0,1
10,2019-09-02T00:09:00,0.7,東,1.1,東,21.2,97.6,0,0,0,1
11,2019-09-02T00:10:00,0.6,東,1.1,東,21.2,97.6,0,0,0,1
12,2019-09-02T00:11:00,0.6,東,1.1,東,21.1,97.5,0,0,0,1
13,2019-09-02T00:12:00,0.5,東,1.1,東,21.1,97.6,0,0,0,1
14,2019-09-02T00:13:00,0.5,東,1.1,東,21.2,97.6,0,0,0,1
15,2019-09-02T00:14:00,0.4,東,1.1,東,21.2,97.6,0,0,0,1
16,2019-09-02T00:15:00,0.4,東北東,1.1,東,21.2,97.6,0,0,0,1
17,2019-09-02T00:16:00,0.3,東,0.8,東,21.2,97.6,0,0,0,1
18,2019-09-02T00:17:00,0.3,東,0.7,東南東,21.3,97.6,0,0,0,1
19,2019-09-02T00:18:00,0.3,東,0.7,東南東,21.3,97.6,0,0,0,1
20,2019-09-02T00:19:00,0.4,東,0.7,東南東,21.2,97.6,0,0,0,1
21,2019-09-02T00:20:00,0.4,東,0.7,東南東,21.3,97.5,0,0,0,1
22,2019-09-02T00:21:00,0.4,東,0.7,東南東,21.3,97.5,0,0,0,1
23,2019-09-02T00:22:00,0.4,東,0.7,東南東,21.3,97.6,0,0,0,1
24,2019-09-02T00:23:00,0.4,東,0.7,東南東,21.2,97.4,0,0,0,1
25,2019-09-02T00:24:00,0.4,東南東,0.7,東南東,21.2,97.4,0,0,0,1
26,2019-09-02T00:25:00,0.4,東南東,0.7,東南東,21.2,97.5,0,0,0,1
27,2019-09-02T00:26:00,0.4,東南東,0.7,東南東,21.2,97.5,0,0,0,1
28,2019-09-02T00:27:00,0.3,南東,0.7,西南西,21.2,97.5,0,0,0,1
29,2019-09-02T00:28:00,0.3,南東,0.7,西南西,21.2,97.6,0,0,0,1
30,2019-09-02T00:29:00,0.2,静穏,0.7,西南西,21.3,97.5,0,0,0,1
31,2019-09-02T00:30:00,0.2,静穏,0.7,西南西,21.3,97.5,0,0,0,1
32,2019-09-02T00:31:00,0.1,静穏,0.7,西南西,21.3,97.6,0,0,0,1
33,2019-09-02T00:32:00,,"",,"",,,,,,
34,2019-09-02T00:33:00,0.1,静穏,0.7,西南西,21.4,97.6,0,0,0,1
35,2019-09-02T00:34:00,0.2,静穏,0.8,東,21.5,97.7,0,0,0,1
36,2019-09-02T00:35:00,0.2,静穏,0.8,東,21.5,97.7,0,0,0,1
37,2019-09-02T00:36:00,0.2,静穏,0.8,東,21.5,97.6,0,0,0,1
38,2019-09-02T00:37:00,0.1,静穏,0.8,東,21.4,97.5,0,0,0,1
39,2019-09-02T00:38:00,0.2,静穏,0.8,東,21.3,97.4,0,0,0,1
40,2019-09-02T00:39:00,0.2,静穏,0.8,東,21.3,97.4,0,0,0,1
41,2019-09-02T00:40:00,0.2,静穏,0.8,東,21.4,97.4,0,0,0,1
42,2019-09-02T00:41:00,0.2,静穏,0.8,東,21.3,97.4,0,0,0,1
43,2019-09-02T00:42:00,0.2,静穏,0.8,東,21.3,97.5,0,0,0,1
44,2019-09-02T00:43:00,0.2,静穏,0.8,東,21.3,97.3,0,0,0,1
45,2019-09-02T00:44:00,0.2,静穏,0.7,東,21.2,97.3,0,0,0,1
46,2019-09-02T00:45:00,0.1,静穏,0.4,東南東,21.2,97.3,0,0,0,1
47,2019-09-02T00:46:00,0.1,静穏,0.4,東南東,21.3,97.4,0,0,0,1
48,2019-09-02T00:47:00,0.1,静穏,0.4,東南東,21.2,97.3,0,0,0,1
49,2019-09-02T00:48:00,0.1,静穏,0.6,南東,21.2,97.3,0,0,0,1
50,2019-09-02T00:49:00,0.2,静穏,0.6,南東,21.2,97.4,0,0,0,1
51,2019-09-02T00:50:00,0.2,静穏,0.6,南東,21.1,97.3,0,0,0,1
52,2019-09-02T00:51:00,0.2,静穏,0.6,南東,21.2,97.4,0,0,0,1
53,2019-09-02T00:52:00,0.2,静穏,0.6,南東,21.1,97.4,0,0,0,1
54,2019-09-02T00:53:00,0.2,静穏,0.7,東,21.3,97.6,0,0,0,1
55,2019-09-02T00:54:00,0.3,東南東,0.7,東,21.2,97.5,0,0,0,1
56,2019-09-02T00:55:00,0.3,東南東,0.8,東,21.2,97.5,0,0,0,1
57,2019-09-02T00:56:00,0.4,東南東,0.9,東,21.3,97.5,0,0,0,1
58,2019-09-02T00:57:00,0.5,東,0.9,東,21.3,97.5,0,0,0,1
59,2019-09-02T00:58:00,0.5,東,0.9,東,21.3,97.5,0,0,0,1
60,2019-09-02T00:59:00,0.5,東,0.9,東,21.4,97.6,0,0,0,1
61,2019-09-02T01:00:00,0.5,東,0.9,東,21.4,97.5,0,0,0,1
62,2019-09-02T01:01:00,0.5,東,0.9,東,21.4,97.5,0,0,0,1
63,2019-09-02T01:02:00,0.5,東北東,0.9,東,21.4,97.5,0,0,0,1
64,2019-09-02T01:03:00,,"",,"",,,,,,
65,2019-09-02T01:04:00,0.5,東北東,0.9,東,21.4,97.3,0,0,0,1
66,2019-09-02T01:05:00,0.4,北東,0.9,東,21.3,97.1,0,0,0,1
67,2019-09-02T01:06:00,0.4,北東,0.7,東北東,21.4,97.2,0,0,0,1
68,2019-09-02T01:07:00,0.3,北東,0.7,東北東,21.4,97.2,0,0,0,1
69,2019-09-02T01:08:00,0.3,北東,0.7,東北東,21.4,97.2,0,0,0,1
70,2019-09-02T01:09:00,0.3,北東,0.7,東北東,21.4,97.1,0,0,0,1
71,2019-09-02T01:10:00,0.3,北東,0.6,北東,21.4,97,0,0,0,1
72,2019-09-02T01:11:00,0.3,北東,0.8,東,21.4,97,0,0,0,1
73,2019-09-02T01:12:00,0.4,北東,0.8,東,21.4,96.9,0,0,0,1
74,2019-09-02T01:13:00,0.4,東北東,1.1,東,21.4,96.9,0,0,0,1
75,2019-09-02T01:14:00,0.4,東北東,1.1,東,21.5,96.9,0,0,0,1
76,2019-09-02T01:15:00,0.5,東北東,1.1,東,21.5,96.9,0,0,0,1
77,2019-09-02T01:16:00,0.5,東,1.1,東,21.5,96.8,0,0,0,1
78,2019-09-02T01:17:00,0.6,東,1.1,東,21.5,96.9,0,0,0,1
79,2019-09-02T01:18:00,0.7,東,1.2,東,21.4,96.7,0,0,0,1
80,2019-09-02T01:19:00,0.7,東,1.2,東,21.4,96.5,0,0,0,1
81,2019-09-02T01:20:00,0.7,東,1.2,東,21.4,96.5,0,0,0,1
82,2019-09-02T01:21:00,0.7,東,1.2,東,21.4,96.5,0,0,0,1
83,2019-09-02T01:22:00,0.7,東,1.2,東,21.4,96.5,0,0,0,1
84,2019-09-02T01:23:00,0.7,東,1.2,東,21.3,96.4,0,0,0,1
85,2019-09-02T01:24:00,0.7,東,1.2,東,21.4,96.6,0,0,0,1
86,2019-09-02T01:25:00,0.7,東,1.4,東北東,21.4,96.6,0,0,0,1
87,2019-09-02T01:26:00,0.8,東,1.4,東北東,21.4,96.6,0,0,0,1
88,2019-09-02T01:27:00,0.8,東北東,1.4,東北東,21.4,96.6,0,0,0,1
89,2019-09-02T01:28:00,0.8,東北東,1.6,東北東,21.4,96.5,0,0,0,1
90,2019-09-02T01:29:00,0.9,東北東,1.6,東北東,21.4,96.4,0,0,0,1
91,2019-09-02T01:30:00,0.9,東北東,1.6,東北東,21.4,96.4,0,0,0,1
92,2019-09-02T01:31:00,1,東北東,1.6,東北東,21.4,96.5,0,0,0,1
93,2019-09-02T01:32:00,,"",,"",,,,,,
94,2019-09-02T01:33:00,1,東北東,1.6,東北東,21.4,96.5,0,0,0,1
95,2019-09-02T01:34:00,,"",,"",,,,,,
96,2019-09-02T01:35:00,1,東北東,1.6,東北東,21.3,96.5,0,0,0,1
97,2019-09-02T01:36:00,1,東北東,1.6,東北東,21.3,96.4,0,0,0,1
98,2019-09-02T01:37:00,1,東北東,1.6,東北東,21.3,96.5,0,0,0,1
99,2019-09-02T01:38:00,1,東北東,1.6,東,21.3,96.5,0,0,0,1
100,2019-09-02T01:39:00,1,東,1.6,東,21.3,96.4,0,0,0,1
101,2019-09-02T01:40:00,1,東,1.6,東,21.3,96.4,0,0,0,1
102,2019-09-02T01:41:00,1,東,1.6,東,21.3,96.3,0,0,0,1
103,2019-09-02T01:42:00,1,東,1.6,東,21.3,96.2,0,0,0,1
104,2019-09-02T01:43:00,1.1,東,1.6,東,21.3,96.3,0,0,0,1
105,2019-09-02T01:44:00,1,東,1.6,東,21.2,96.1,0,0,0,1
106,2019-09-02T01:45:00,1,東,1.6,東,21.2,96.1,0,0,0,1
107,2019-09-02T01:46:00,1,東,1.6,東,21.2,96.2,0,0,0,1
108,2019-09-02T01:47:00,1,東,1.6,東,21.3,96.3,0,0,0,1
109,2019-09-02T01:48:00,0.9,東南東,1.6,東,21.2,96.3,0,0,0,1
110,2019-09-02T01:49:00,0.8,東南東,1.5,東,21.2,96.2,0,0,0,1
111,2019-09-02T01:50:00,0.8,東南東,1.5,東,21.2,96.3,0,0,0,1
112,2019-09-02T01:51:00,0.8,東南東,1.4,東南東,21.2,96.3,0,0,0,1
113,2019-09-02T01:52:00,0.8,東南東,1.4,東南東,21.2,96.3,0,0,0,1
114,2019-09-02T01:53:00,0.7,東南東,1.4,東南東,21.1,96.2,0,0,0,1
115,2019-09-02T01:54:00,0.7,東南東,1.4,東南東,21.2,96.3,0,0,0,1
116,2019-09-02T01:55:00,0.8,東南東,1.4,東南東,21.3,96.5,0,0,0,1
117,2019-09-02T01:56:00,0.8,東南東,1.4,東南東,21.3,96.4,0,0,0,1
118,2019-09-02T01:57:00,0.9,東,1.5,東,21.2,96.3,0,0,0,1
119,2019-09-02T01:58:00,0.9,東,1.5,東,21.2,96.3,0,0,0,1
120,2019-09-02T01:59:00,0.9,東,1.5,東,21.2,96.1,0,0,0,1
121,2019-09-02T02:00:00,0.9,東,1.5,東,21.2,96.1,0,0,0,1
122,2019-09-02T02:01:00,0.9,東,1.5,東,21.1,96.1,0,0,0,1
123,2019-09-02T02:02:00,0.8,東,1.5,東,21.1,96.1,0,0,0,1
124,2019-09-02T02:03:00,0.8,東,1.5,東,21.2,96.2,0,0,0,1
125,2019-09-02T02:04:00,0.8,東北東,1.5,東,21.2,96.3,0,0,0,1
126,2019-09-02T02:05:00,0.7,東北東,1.5,東,21.2,96.2,0,0,0,1
127,2019-09-02T02:06:00,0.7,東北東,1.5,東,21.2,96.3,0,0,0,1
128,2019-09-02T02:07:00,,"",,"",,,,,,
129,2019-09-02T02:08:00,0.6,東北東,1.1,東,21.2,96.2,0,0,0,1
130,2019-09-02T02:09:00,0.6,東北東,1.1,東,21.2,96.3,0,0,0,1
131,2019-09-02T02:10:00,0.6,東北東,1.1,東,21.2,96.3,0,0,0,1
132,2019-09-02T02:11:00,0.5,東北東,1,東北東,21.2,96.3,0,0,0,1
133,2019-09-02T02:12:00,0.5,東北東,1,東北東,21.2,96.4,0,0,0,1
134,2019-09-02T02:13:00,0.4,東北東,1,東北東,21.2,96.4,0,0,0,1
135,2019-09-02T02:14:00,0.4,東北東,1,東北東,21,96.2,0,0,0,1
136,2019-09-02T02:15:00,0.4,東北東,1,東北東,21,96.2,0,0,0,1
137,2019-09-02T02:16:00,0.3,東,1,東北東,21.1,96.6,0,0,0,1
138,2019-09-02T02:17:00,0.3,東,1,東北東,21.1,96.7,0,0,0,1
139,2019-09-02T02:18:00,0.2,静穏,0.7,東北東,21.2,96.9,0,0,0,1
140,2019-09-02T02:19:00,0.2,静穏,0.7,東北東,21.3,97,0,0,0,1
141,2019-09-02T02:20:00,0.2,静穏,0.6,東北東,21.3,96.9,0,0,0,1
142,2019-09-02T02:21:00,0.3,東,0.8,東,21.2,96.8,0,0,0,1
143,2019-09-02T02:22:00,0.3,東,1,東,21.2,96.7,0,0,0,1
144,2019-09-02T02:23:00,0.4,東,1,東,21.2,96.6,0,0,0,1
145,2019-09-02T02:24:00,0.4,東,1,東,21.2,96.5,0,0,0,1
146,2019-09-02T02:25:00,0.5,東,1,東,21.2,96.3,0,0,0,1
147,2019-09-02T02:26:00,0.5,東,1,東,21.2,96.3,0,0,0,1
148,2019-09-02T02:27:00,0.6,東,1,東,21.2,96.3,0,0,0,1
149,2019-09-02T02:28:00,0.7,東,1,東,21.2,96.1,0,0,0,1
150,2019-09-02T02:29:00,0.7,東,1,東,21.2,96,0,0,0,1
151,2019-09-02T02:30:00,0.7,東,1,東,21.2,95.9,0,0,0,1
152,2019-09-02T02:31:00,0.7,東北東,1,東,21.2,95.9,0,0,0,1
153,2019-09-02T02:32:00,0.7,東北東,1,東,21.2,96,0,0,0,1
154,2019-09-02T02:33:00,0.7,東北東,1,東,21.2,96,0,0,0,1
155,2019-09-02T02:34:00,0.7,東北東,1,東,21.2,96,0,0,0,1
156,2019-09-02T02:35:00,0.6,東北東,1,東,21.2,95.9,0,0,0,1
157,2019-09-02T02:36:00,,"",,"",,,,,,
158,2019-09-02T02:37:00,0.6,東北東,1,東,21.2,96,0,0,0,1
159,2019-09-02T02:38:00,0.5,東北東,0.9,北東,21.1,95.9,0,0,0,1
160,2019-09-02T02:39:00,,"",,"",,,,,,
161,2019-09-02T02:40:00,0.4,東北東,0.9,北東,21.2,96.1,0,0,0,1
162,2019-09-02T02:41:00,0.4,東,0.9,北東,21.2,96.2,0,0,0,1
163,2019-09-02T02:42:00,0.3,東,0.6,東南東,21.2,96,0,0,0,1
164,2019-09-02T02:43:00,0.3,東,0.6,東南東,21.1,96,0,0,0,1
165,2019-09-02T02:44:00,0.3,東南東,0.6,東南東,21.2,96,0,0,0,1
166,2019-09-02T02:45:00,0.3,東南東,1,東南東,21.3,96.3,0,0,0,1
167,2019-09-02T02:46:00,0.4,東南東,1,東南東,21.3,96.2,0,0,0,1
168,2019-09-02T02:47:00,0.4,東南東,1,東南東,21.3,96,0,0,0,1
169,2019-09-02T02:48:00,0.5,東南東,1.1,東南東,21.2,95.9,0,0,0,1
170,2019-09-02T02:49:00,0.5,東南東,1.1,東南東,21.2,95.8,0,0,0,1
171,2019-09-02T02:50:00,0.5,東南東,1.1,東南東,21.2,95.9,0,0,0,1
172,2019-09-02T02:51:00,0.5,東南東,1.1,東南東,21.1,95.8,0,0,0,1
173,2019-09-02T02:52:00,0.6,東南東,1.1,東南東,21.1,95.8,0,0,0,1
174,2019-09-02T02:53:00,0.6,東南東,1.1,東南東,21.1,95.8,0,0,0,1
175,2019-09-02T02:54:00,0.6,東南東,1.1,東南東,21.1,96,0,0,0,1
176,2019-09-02T02:55:00,0.6,東南東,1.1,東南東,21.1,96.1,0,0,0,1
177,2019-09-02T02:56:00,0.6,東南東,1.1,東南東,21.1,96,0,0,0,1
178,2019-09-02T02:57:00,0.5,東南東,1.1,東南東,21.1,96.1,0,0,0,1
179,2019-09-02T02:58:00,0.5,東南東,1,東南東,21.1,96.2,0,0,0,1
180,2019-09-02T02:59:00,0.4,東南東,1,東南東,21.1,96.3,0,0,0,1
181,2019-09-02T03:00:00,0.4,東南東,1,東南東,21.2,96.3,0,0,0,1
182,2019-09-02T03:01:00,0.4,東南東,1,東南東,21.3,96.5,0,0,0,1
183,2019-09-02T03:02:00,0.4,東南東,0.7,東,21.2,96.1,0,0,0,1
184,2019-09-02T03:03:00,0.3,東南東,0.7,東,21.2,96.2,0,0,0,1
185,2019-09-02T03:04:00,0.3,東南東,0.6,東南東,21,95.9,0,0,0,1
186,2019-09-02T03:05:00,0.3,東南東,0.6,東南東,21,95.9,0,0,0,1
187,2019-09-02T03:06:00,0.2,静穏,0.6,東南東,21,96.3,0,0,0,1
188,2019-09-02T03:07:00,0.2,静穏,0.4,東南東,21.1,96.4,0,0,0,1
189,2019-09-02T03:08:00,0.2,静穏,0.4,東南東,21.2,96.7,0,0,0,1
190,2019-09-02T03:09:00,,"",,"",,,,,,
191,2019-09-02T03:10:00,0.2,静穏,0.9,南,21.2,96.8,0,0,0,1
192,2019-09-02T03:11:00,0.2,静穏,0.9,南,21.2,96.8,0,0,0,1
193,2019-09-02T03:12:00,,"",,"",,,,,,
194,2019-09-02T03:13:00,0.3,南,0.9,南,21.2,97,0,0,0,1
195,2019-09-02T03:14:00,0.3,南,0.9,南,21.2,97,0,0,0,1
196,2019-09-02T03:15:00,0.3,南,0.9,南,21.2,97,0,0,0,1
197,2019-09-02T03:16:00,0.3,南,0.9,南,21.2,97,0,0,0,1
198,2019-09-02T03:17:00,0.3,南,0.9,南,21.3,97.1,0,0,0,1
199,2019-09-02T03:18:00,0.3,南,0.9,南,21.3,97.3,0,0,0,1
200,2019-09-02T03:19:00,0.3,南南西,0.8,南南西,21.3,97.3,0,0,0,1
201,2019-09-02T03:20:00,0.2,静穏,0.8,南南西,21.2,97,0,0,0,1
202,2019-09-02T03:21:00,0.2,静穏,0.8,南南西,21.2,97,0,0,0,1
203,2019-09-02T03:22:00,0.2,静穏,0.6,南南西,21.2,97.1,0,0,0,1
204,2019-09-02T03:23:00,0.1,静穏,0.6,南南西,21.2,97,0,0,0,1
205,2019-09-02T03:24:00,0.1,静穏,0.4,南南東,21.3,97.1,0,0,0,1
206,2019-09-02T03:25:00,0.1,静穏,0.7,南西,21.3,97.1,0,0,0,1
207,2019-09-02T03:26:00,0.2,静穏,0.7,南西,21.2,97.1,0,0,0,1
208,2019-09-02T03:27:00,0.2,静穏,0.7,南西,21.2,97,0,0,0,1
209,2019-09-02T03:28:00,0.3,南西,0.8,南南西,21.2,97,0,0,0,1
210,2019-09-02T03:29:00,0.3,南西,0.8,南南西,21.1,97,0,0,0,1
211,2019-09-02T03:30:00,0.3,南南西,0.8,南南西,21.2,97.1,0,0,0,1
212,2019-09-02T03:31:00,0.4,南南西,0.8,南南西,21.1,97.1,0,0,0,1
213,2019-09-02T03:32:00,0.4,南南西,1.5,南南西,21.2,97.2,0,0,0,1
214,2019-09-02T03:33:00,0.5,南南西,1.5,南南西,21.2,97.3,0,0,0,1
215,2019-09-02T03:34:00,0.5,南南西,1.5,南南西,21.2,97.3,0,0,0,1
216,2019-09-02T03:35:00,0.5,南南西,1.5,南南西,21.1,97.1,0,0,0,1
217,2019-09-02T03:36:00,0.5,南南西,1.5,南南西,21.1,97.2,0,0,0,1
218,2019-09-02T03:37:00,0.5,南南西,1.5,南南西,21.1,97.2,0,0,0,1
219,2019-09-02T03:38:00,0.5,南南西,1.5,南南西,21.1,97.3,0,0,0,1
220,2019-09-02T03:39:00,0.5,南南西,1.5,南南西,21.1,97.3,0,0,0,1
221,2019-09-02T03:40:00,,"",,"",,,,,,
222,2019-09-02T03:41:00,0.5,南南西,1.5,南南西,21.2,97.5,0,0,0,1
223,2019-09-02T03:42:00,0.4,南南西,1.3,南,21.2,97.5,0,0,0,1
224,2019-09-02T03:43:00,0.3,南南西,1,南南東,21.2,97.4,0,0,0,1
225,2019-09-02T03:44:00,0.3,南西,0.6,南西,21.3,97.5,0,0,0,1
226,2019-09-02T03:45:00,0.3,南西,0.6,南西,21.3,97.4,0,0,0,1
227,2019-09-02T03:46:00,0.3,南西,0.6,南西,21.3,97.4,0,0,0,1
228,2019-09-02T03:47:00,0.3,南西,0.6,南西,21.2,97.4,0,0,0,1
229,2019-09-02T03:48:00,0.4,南西,1.1,西南西,21.2,97.2,0,0,0,1
230,2019-09-02T03:49:00,0.4,南西,1.2,南西,21.1,97.1,0,0,0,1
231,2019-09-02T03:50:00,0.5,南西,1.3,南西,21.1,97.2,0,0,0,1
232,2019-09-02T03:51:00,0.5,南西,1.3,南西,21.1,97.3,0,0,0,1
233,2019-09-02T03:52:00,0.5,南西,1.3,南西,21.1,97.2,0,0,0,1
234,2019-09-02T03:53:00,0.6,南西,1.3,南西,21.1,97.3,0,0,0,1
235,2019-09-02T03:54:00,0.6,南西,1.3,南西,21.1,97.3,0,0,0,1
236,2019-09-02T03:55:00,0.6,南西,1.3,南西,21.2,97.4,0,0,0,1
237,2019-09-02T03:56:00,0.6,南西,1.3,南西,21.1,97.4,0,0,0,1
238,2019-09-02T03:57:00,0.6,南西,1.3,南西,21.2,97.5,0,0,0,1
239,2019-09-02T03:58:00,0.6,南西,1.3,南西,21.1,97.4,0,0,0,1
240,2019-09-02T03:59:00,0.5,南南西,1.3,南西,21.1,97.4,0,0,0,1
241,2019-09-02T04:00:00,0.5,南南西,1.1,南西,21.1,97.4,0,0,0,1
242,2019-09-02T04:01:00,0.4,南南西,1.1,南西,21.1,97.4,0,0,0,1
243,2019-09-02T04:02:00,0.4,南南西,1.1,南西,21.1,97.4,0,0,0,1
244,2019-09-02T04:03:00,0.4,南南西,0.7,南西,21.1,97.4,0,0,0,1
245,2019-09-02T04:04:00,0.4,南南西,0.7,南西,21.1,97.5,0,0,0,1
246,2019-09-02T04:05:00,0.4,南南西,0.7,南西,21.1,97.5,0,0,0,1
247,2019-09-02T04:06:00,0.4,南南西,0.7,南西,21.1,97.5,0,0,0,1
248,2019-09-02T04:07:00,0.4,南南西,0.7,南西,21.1,97.5,0,0,0,1
249,2019-09-02T04:08:00,0.4,南南西,1,西南西,21.1,97.5,0,0,0,1
250,2019-09-02T04:09:00,0.5,南南西,1,西南西,21,97.5,0,0,0,1
251,2019-09-02T04:10:00,0.5,南南西,1,西南西,21.1,97.5,0,0,0,1
252,2019-09-02T04:11:00,,"",,"",,,,,,
253,2019-09-02T04:12:00,0.5,南西,1,西南西,21.1,97.6,0,0,0,1
254,2019-09-02T04:13:00,0.5,南西,1,西南西,21.1,97.6,0,0,0,1
255,2019-09-02T04:14:00,0.5,南南西,1,西南西,21.1,97.6,0,0,0,1
256,2019-09-02T04:15:00,0.5,南南西,1,西南西,21.1,97.6,0,0,0,1
257,2019-09-02T04:16:00,0.5,南南西,1,西南西,21.1,97.6,0,0,0,1
258,2019-09-02T04:17:00,0.5,南南西,1,西南西,21.1,97.6,0,0,0,1
259,2019-09-02T04:18:00,0.5,南南西,0.8,南西,21.1,97.6,0,0,0,1
260,2019-09-02T04:19:00,0.5,南南西,0.8,南西,21.1,97.6,0,0,0,1
261,2019-09-02T04:20:00,0.5,南南西,0.9,南西,21.1,97.6,0,0,0,1
262,2019-09-02T04:21:00,0.5,南南西,1,南西,21.1,97.6,0,0,0,1
263,2019-09-02T04:22:00,0.5,南南西,1.1,南南西,21.1,97.6,0,0,0,1
264,2019-09-02T04:23:00,0.5,南南西,1.1,南南西,21.1,97.6,0,0,0,1
265,2019-09-02T04:24:00,0.6,南南西,1.1,南南西,21.1,97.6,0,0,0,1
266,2019-09-02T04:25:00,0.6,南南西,1.1,南南西,21.1,97.6,0,0,0,1
267,2019-09-02T04:26:00,0.6,南南西,1.4,南南西,21.1,97.6,0,0,0,1
268,2019-09-02T04:27:00,0.7,南南西,1.4,南南西,21.1,97.6,0,0,0,1
269,2019-09-02T04:28:00,0.7,南南西,1.4,南南西,21.1,97.6,0,0,0,1
270,2019-09-02T04:29:00,0.7,南南西,1.4,南南西,21,97.6,0,0,0,1
271,2019-09-02T04:30:00,0.7,南南西,1.4,南南西,21,97.6,0,0,0,1
272,2019-09-02T04:31:00,0.7,南南西,1.4,南南西,21,97.6,0,0,0,1
273,2019-09-02T04:32:00,0.8,南南西,1.4,南南西,21.1,97.6,0,0,0,1
274,2019-09-02T04:33:00,0.7,南南西,1.4,南南西,21.1,97.6,0,0,0,1
275,2019-09-02T04:34:00,0.7,南西,1.4,南南西,21.1,97.6,0,0,0,1
276,2019-09-02T04:35:00,0.7,南西,1.4,南南西,21.1,97.6,0,0,0,1
277,2019-09-02T04:36:00,0.7,南西,1.1,南南西,21.1,97.6,0,0,0,1
278,2019-09-02T04:37:00,0.7,南西,1.3,西南西,21.1,97.6,0,0,0,1
279,2019-09-02T04:38:00,0.7,南西,1.3,西南西,21.1,97.6,0,0,0,1
280,2019-09-02T04:39:00,0.7,南西,1.3,西南西,21.1,97.6,0,0,0,1
281,2019-09-02T04:40:00,0.7,南西,1.3,西南西,21.1,97.6,0,0,0,1
282,2019-09-02T04:41:00,0.6,南西,1.3,西南西,21.1,97.6,0,0,0,1
283,2019-09-02T04:42:00,0.6,南西,1.3,西南西,21.1,97.5,0,0,0,1
284,2019-09-02T04:43:00,0.7,南西,1.3,西南西,21.1,97.5,0,0,0,1
285,2019-09-02T04:44:00,,"",,"",,,,,,
286,2019-09-02T04:45:00,0.7,南西,1.3,西南西,21.1,97.6,0,0,0,1
287,2019-09-02T04:46:00,0.6,南西,1.3,西南西,21.1,97.6,0,0,0,1
288,2019-09-02T04:47:00,0.6,南西,1.3,南南西,21.1,97.5,0,0,0,1
289,2019-09-02T04:48:00,0.6,南西,1.3,南南西,21.1,97.5,0,0,0,1
290,2019-09-02T04:49:00,0.6,南西,1.3,南南西,21.1,97.6,0,0,0,1
291,2019-09-02T04:50:00,0.6,南南西,1.3,南南西,21,97.5,0,0,0,1
292,2019-09-02T04:51:00,0.6,南南西,1.3,南南西,21.1,97.5,0,0,0,1
293,2019-09-02T04:52:00,0.6,南南西,1.3,南南西,21.1,97.5,0,0,0,1
294,2019-09-02T04:53:00,0.6,南南西,1.1,南南西,21.1,97.6,0,0,0,1
295,2019-09-02T04:54:00,0.6,南南西,1.4,南南東,21.1,97.6,0,0,0,1
296,2019-09-02T04:55:00,0.6,南,1.4,南南東,21.2,97.6,0,0,0,1
297,2019-09-02T04:56:00,0.6,南,1.4,南南東,21.2,97.6,0,0,0,1
298,2019-09-02T04:57:00,0.6,南,1.4,南南東,21.2,97.6,0,0,0,1
299,2019-09-02T04:58:00,0.6,南,1.4,南南東,21.2,97.6,0,0,0,1
300,2019-09-02T04:59:00,0.6,南,1.4,南南東,21.1,97.5,0,0,0,1
301,2019-09-02T05:00:00,0.6,南,1.4,南南東,21.1,97.5,0,0,0,1
302,2019-09-02T05:01:00,0.6,南,1.4,南南東,21.2,97.5,0,0,0,1
303,2019-09-02T05:02:00,0.6,南,1.4,南南東,21.2,97.6,0,0,0,1
304,2019-09-02T05:03:00,0.6,南南西,1.4,南南東,21.2,97.6,0,0,0,1
305,2019-09-02T05:04:00,0.6,南南西,1.2,西南西,21.2,97.5,0,0,0,1
306,2019-09-02T05:05:00,0.5,南南西,1.2,西南西,21.2,97.4,0,0,0,1
307,2019-09-02T05:06:00,0.5,南南西,1.2,西南西,21.2,97.3,0,0,0,1
308,2019-09-02T05:07:00,0.6,南南西,1.2,西南西,21.1,97.4,0,0,0,1
309,2019-09-02T05:08:00,0.6,南南西,1.2,西南西,21.1,97.4,0,0,0,1
310,2019-09-02T05:09:00,0.6,南南西,1.2,西南西,21.2,97.4,0,0,0,1
311,2019-09-02T05:10:00,0.6,南南西,1.2,西南西,21.2,97.4,0,0,0,1
312,2019-09-02T05:11:00,0.6,南南西,1.2,西南西,21.3,97.5,0,0,0,1
313,2019-09-02T05:12:00,0.6,南南西,1.2,西南西,21.3,97.5,0,0,0,1
314,2019-09-02T05:13:00,0.6,南南西,1.2,西南西,21.3,97.4,0,0,0,1
315,2019-09-02T05:14:00,0.6,南,1,南南西,21.3,97.5,0,0,0,1
316,2019-09-02T05:15:00,0.6,南,1,南南西,21.3,97.4,0,0,0,1
317,2019-09-02T05:16:00,,"",,"",,,,,,
318,2019-09-02T05:17:00,0.6,南,1,南南西,21.3,97.2,0,0,0,1
319,2019-09-02T05:18:00,0.6,南,1,南南西,21.3,97.2,0,0,0,1
320,2019-09-02T05:19:00,0.6,南南東,1,南南西,21.3,97.2,0,0,0,1
321,2019-09-02T05:20:00,0.6,南南東,0.9,南南東,21.3,97.1,0,0,0,1
322,2019-09-02T05:21:00,0.6,南南東,0.9,南南東,21.3,97,0,0,0,1
323,2019-09-02T05:22:00,0.6,南南東,0.9,南南東,21.3,97.1,0,0,0,1
324,2019-09-02T05:23:00,0.6,南南東,0.9,南南東,21.3,97,0,0,0,1
325,2019-09-02T05:24:00,0.5,南,0.9,南南東,21.2,96.9,0,0,0,1
326,2019-09-02T05:25:00,0.5,南,0.9,南南東,21.3,97.1,0,0,0,1
327,2019-09-02T05:26:00,0.5,南,0.8,南東,21.3,97,0,0,0,1
328,2019-09-02T05:27:00,0.4,南,0.8,南東,21.3,96.9,0,0,0,1
329,2019-09-02T05:28:00,0.4,南,0.8,南東,21.4,97,0,0,0,1
330,2019-09-02T05:29:00,0.4,南,0.8,南東,21.4,96.9,0,0,0,1
331,2019-09-02T05:30:00,0.4,南,0.8,南東,21.4,96.9,0,0,0,1
332,2019-09-02T05:31:00,0.4,南,0.8,南東,21.3,96.8,0,0,0,1
333,2019-09-02T05:32:00,0.3,南南西,0.8,南東,21.4,96.8,0,0,0,1
334,2019-09-02T05:33:00,0.3,南南西,0.8,南東,21.4,96.9,0,0,0,1
335,2019-09-02T05:34:00,0.3,南南西,0.6,南西,21.4,96.9,0,0,0,1
336,2019-09-02T05:35:00,0.3,南南西,0.6,南西,21.4,96.8,0,0,0,1
337,2019-09-02T05:36:00,0.3,南南西,0.6,南西,21.5,96.7,0,0,0,1
338,2019-09-02T05:37:00,0.3,南南西,0.6,南西,21.5,96.8,0,0,0,1
339,2019-09-02T05:38:00,0.2,静穏,0.6,南西,21.4,96.7,0,0,0,1
340,2019-09-02T05:39:00,0.3,南,0.7,南南西,21.4,96.6,0,0,0,1
341,2019-09-02T05:40:00,0.3,南,0.7,南南西,21.5,96.6,0,0,0,1
342,2019-09-02T05:41:00,0.3,南,0.7,南南西,21.4,96.5,0,0,0,1
343,2019-09-02T05:42:00,0.3,南南東,0.7,南南西,21.4,96.5,0,0,0,1
344,2019-09-02T05:43:00,0.3,南南東,0.7,南南西,21.5,96.5,0,0,0,1
345,2019-09-02T05:44:00,0.3,南東,0.9,東南東,21.6,96.7,0,0,0,1
346,2019-09-02T05:45:00,0.3,南東,0.9,東南東,21.6,96.6,0,0,0,1
347,2019-09-02T05:46:00,0.4,南東,0.9,東南東,21.6,96.3,0,0,0,1
348,2019-09-02T05:47:00,0.5,南東,1.2,東,21.6,96.3,0,0,0,1
349,2019-09-02T05:48:00,0.5,東南東,1.2,東,21.6,96.4,0,0,0,1
350,2019-09-02T05:49:00,0.5,東南東,1.2,東,21.6,96.3,0,0,0,1
351,2019-09-02T05:50:00,,"",,"",,,,,,
352,2019-09-02T05:51:00,0.6,東,1.2,東,21.6,96.1,0,0,0,1
353,2019-09-02T05:52:00,0.6,東,1.2,東,21.6,96.1,0,0,0,1
354,2019-09-02T05:53:00,0.6,東,1.2,東,21.6,96.1,0,0,0,1
355,2019-09-02T05:54:00,0.6,東,1.2,東,21.6,96.2,0,0,0,1
356,2019-09-02T05:55:00,0.7,東,1.2,東,21.6,96.1,0,0,0,1
357,2019-09-02T05:56:00,0.7,東,1.7,東,21.6,96.1,0,0,0,1
358,2019-09-02T05:57:00,0.8,東,1.7,東,21.7,96,0,0,0,1
359,2019-09-02T05:58:00,0.8,東,1.7,東,21.6,95.9,0,0,0,1
360,2019-09-02T05:59:00,0.9,東,1.7,東,21.7,96,0,0,0,1
361,2019-09-02T06:00:00,0.9,東,1.7,東,21.7,96,0,0,0,1
362,2019-09-02T06:01:00,0.9,東,1.7,東,21.7,95.9,0,0,0,1
363,2019-09-02T06:02:00,0.8,東,1.7,東,21.6,95.8,0,0,0,1
364,2019-09-02T06:03:00,0.8,東北東,1.7,東,21.5,95.8,0,0,0,1
365,2019-09-02T06:04:00,0.7,東北東,1.7,東,21.6,96,0,0,0,1
366,2019-09-02T06:05:00,0.7,北東,1.7,東,21.7,96.3,0,0,0,1
367,2019-09-02T06:06:00,0.6,北東,1.6,東,21.7,96.3,0,0,0,1
368,2019-09-02T06:07:00,0.6,北北東,1.4,東南東,21.6,95.9,0,0,0,1
369,2019-09-02T06:08:00,0.5,北,1.4,東南東,21.6,95.8,0,0,0,1
370,2019-09-02T06:09:00,0.4,北,1.4,東南東,21.6,95.9,0,0,0,1
371,2019-09-02T06:10:00,0.3,北,0.8,北,21.5,95.9,0,0,0,1
372,2019-09-02T06:11:00,0.3,北北西,0.8,北,21.5,95.9,0,0,0,1
373,2019-09-02T06:12:00,0.3,北北西,0.8,北,21.5,95.9,0,0,0,1
374,2019-09-02T06:13:00,0.3,北北西,0.8,北,21.6,96,0,0,0,1
375,2019-09-02T06:14:00,0.3,北北西,0.8,北,21.6,96.1,0,0,0,1
376,2019-09-02T06:15:00,0.3,北北西,0.8,北,21.6,96.2,0,0,0,1
377,2019-09-02T06:16:00,0.3,北北西,0.8,北,21.6,96.2,0,0,0,1
378,2019-09-02T06:17:00,0.3,北北西,0.6,北北東,21.7,96.2,0,0,0,1
379,2019-09-02T06:18:00,0.3,北,0.6,北北東,21.7,96.2,0,0,0,1
380,2019-09-02T06:19:00,,"",,"",,,,,,
381,2019-09-02T06:20:00,0.4,北,0.8,北北東,21.7,95.9,0,0,0,1
382,2019-09-02T06:21:00,0.4,北,0.9,北北東,21.7,96.1,0,0,0,1
383,2019-09-02T06:22:00,0.4,北,0.9,北北東,21.7,95.9,0,0,0,1
384,2019-09-02T06:23:00,0.4,北北東,0.9,北北東,21.7,95.9,0,0,0,1
385,2019-09-02T06:24:00,0.5,北北東,0.9,北北東,21.8,95.9,0,0,0,1
386,2019-09-02T06:25:00,0.5,北北東,0.9,北北東,21.9,96,0,0,0,1
387,2019-09-02T06:26:00,0.5,北東,0.9,北北東,21.9,96,0,0,0,1
388,2019-09-02T06:27:00,0.5,北東,0.9,北北東,21.9,95.8,0,0,0,1
389,2019-09-02T06:28:00,0.5,東北東,0.9,北北東,21.8,95.6,0,0,0,1
390,2019-09-02T06:29:00,0.4,東北東,0.9,北北東,21.8,95.7,0,0,0,1
391,2019-09-02T06:30:00,0.3,東北東,0.9,北北東,21.9,95.9,0,0,0,1
392,2019-09-02T06:31:00,0.3,東,0.7,北北東,21.9,96,0,0,0,1
393,2019-09-02T06:32:00,0.2,静穏,0.6,東南東,21.8,95.9,0,0,0,1
394,2019-09-02T06:33:00,0.2,静穏,0.6,東南東,21.9,96,0,0,0,1
395,2019-09-02T06:34:00,0.2,静穏,0.6,東南東,21.9,96,0,0,0,1
396,2019-09-02T06:35:00,0.1,静穏,0.6,東南東,21.9,95.8,0,0,0,1
397,2019-09-02T06:36:00,0.1,静穏,0.5,南,21.8,95.7,0,0,0,1
398,2019-09-02T06:37:00,0.1,静穏,0.3,西南西,21.9,95.8,0,0,0,1
399,2019-09-02T06:38:00,0.1,静穏,0.5,南東,21.9,95.8,0,0,0,1
400,2019-09-02T06:39:00,0.1,静穏,0.5,南東,21.9,95.8,0,0,0,1
401,2019-09-02T06:40:00,0.2,静穏,0.6,南南東,21.9,95.6,0,0,0,1
402,2019-09-02T06:41:00,0.2,静穏,0.6,南南東,22,95.8,0,0,0,1
403,2019-09-02T06:42:00,0.2,静穏,0.6,南南東,22,95.7,0,0,0,1
404,2019-09-02T06:43:00,0.2,静穏,0.6,南南東,22,95.5,0,0,0,1
405,2019-09-02T06:44:00,0.2,静穏,0.6,南南東,22,95.7,0,0,0,1
406,2019-09-02T06:45:00,0.2,静穏,0.6,南南東,22,95.8,0,0,0,1
407,2019-09-02T06:46:00,0.2,静穏,0.6,南南東,22,95.6,0,0,0,1
408,2019-09-02T06:47:00,,"",,"",,,,,,
409,2019-09-02T06:48:00,0.3,南西,0.7,西南西,22,95.6,0,0,0,1
410,2019-09-02T06:49:00,0.2,静穏,0.7,西南西,22,95.5,0,0,0,1
411,2019-09-02T06:50:00,,"",,"",,,,,,
412,2019-09-02T06:51:00,0.2,静穏,0.7,西南西,22.1,95.7,0,0,0,1
413,2019-09-02T06:52:00,0.2,静穏,0.7,西南西,22.1,95.4,0,0,0,1
414,2019-09-02T06:53:00,0.2,静穏,0.7,西南西,22.1,95.3,0,0,0,1
415,2019-09-02T06:54:00,0.2,静穏,0.7,西南西,22.2,95.4,0,0,0,1
416,2019-09-02T06:55:00,0.2,静穏,0.7,西南西,22.1,95.2,0,0,0,1
417,2019-09-02T06:56:00,0.2,静穏,0.7,西南西,21.9,94.4,0,0,0,1
418,2019-09-02T06:57:00,0.1,静穏,0.7,北,22,94.8,0,0,0,1
419,2019-09-02T06:58:00,0.1,静穏,0.7,北,22,95.3,0,0,0,1
420,2019-09-02T06:59:00,0.2,静穏,0.7,北,22,95.3,0,0,0,1
421,2019-09-02T07:00:00,0.2,静穏,0.7,北,22,95.4,0,0,0,1
422,2019-09-02T07:01:00,0.2,静穏,0.7,北,22,95.4,0,0,0,1
423,2019-09-02T07:02:00,0.2,静穏,0.7,北,22.1,95.5,0,0,0,1
424,2019-09-02T07:03:00,0.2,静穏,0.7,北,22.2,95.5,0,0,0,1
425,2019-09-02T07:04:00,0.2,静穏,0.7,北,22.2,95.4,0,0,0,1
426,2019-09-02T07:05:00,0.2,静穏,0.9,北,22.1,95,0,0,0,1
427,2019-09-02T07:06:00,0.3,北北西,0.9,北,22.1,95.2,0,0,0,1
428,2019-09-02T07:07:00,0.2,静穏,0.9,北,22.1,95.2,0,0,0,1
429,2019-09-02T07:08:00,0.3,北北西,0.9,北,22,95,0,0,0,1
430,2019-09-02T07:09:00,0.3,北,0.9,北,22.1,95.2,0,0,0,1
431,2019-09-02T07:10:00,0.2,静穏,0.9,北,22,95.2,0,0,0,1
432,2019-09-02T07:11:00,0.2,静穏,0.9,北,22.1,95.5,0,0,0,1
433,2019-09-02T07:12:00,0.3,北北東,1.1,北北東,22,95.4,0,0,0,1
434,2019-09-02T07:13:00,0.3,北北東,1.1,北北東,22,95.3,0,0,0,1
435,2019-09-02T07:14:00,0.4,北北東,1.1,北北東,22.1,95.5,0,0,0,1
436,2019-09-02T07:15:00,0.4,北北東,1.1,北北東,22.2,95.9,0,0,0,1